SCP
0 0 0 0 0 0 0 0 0 0 0 0 0 0 0 0 0 0 0 0 0 0 0 0 0 0 0 0 0 0 0 0 0 0 0 0 0 0 0 0 0 0 0
0 0 0 0 0 0 0 0 0 0 0 0 0 0 0 0 0 0 0 0 0 0 0 0 0 0 0 0 0 0 0 0 0 0 0 0 0 0 0 0 0 0 0
0 0 0 0 0 0 0 0 0 0 0 0 0 0 0 0 0 0 0 0 0 0 0 0 0 0 0 0 0 0 0 0 0 0 0 0 0 0 0 0 0 0 0
0 0 0 0 0 0 0 0 0 0 0 0 0 0 0 0 0 0 0 0 0 0 0 0 0 0 0 0 0 0 0 0 0 0 0 0 0 0 0 0 0 0 0
0 0 0 0 0 0 0 0 0 0 0 0 0 0 0 0 0 0 0 0 0 0 0 0 0 0 0 0 0 0 0 0 0 0 0 0 0 0 0 0 0 0 0
0 0 0 0 0 0 0 0 0 0 0 0 0 0 0 0 0 0 0 0 0 0 0 0 0 0 0 0 0 0 0 0 0 0 0 0 0 0 0 0 0 0 0
0 0 0 0 0 0 0 0 0 0 0 0 0 0 0 0 0 0 0 0 0 0 0 0 0 0 0 0 0 0 0 0 0 0 0 0 0 0 0 0 0 0 0
0 0 0 0 0 0 0 0 0 0 0 0 0 0 0 0 0 0 0 0 0 0 0 0 0 0 0 0 0 0 0 0 0 0 0 0 0 0 0 0 0 0 0
0 0 0 0 0 0 0 0 0 0 0 0 0 0 0 0 0 0 0 0 0 0 0 0 0 0 0 0 0 0 0 0 0 0 0 0 0 0 0 0 0 0 0
0 0 0 0 0 0 0 0 0 0 0 0 0 0 0 0 0 0 0 0 0 0 0 0 0 0 0 0 0 0 0 -0 -0 0 0 0 0 0 0 0 0 0 0
0 0 0 0 0 0 0 0 0 0 0 0 0 0 0 0 0 0 0 0 0 0 0 0 0 0 0 0 0 -0 -0 -0 -0 -0 -0 0 0 0 0 0 0 0 0
0 0 0 0 0 0 0 0 0 0 0 0 0 0 0 0 0 0 0 0 0 0 0 0 0 0 0 0 0 0 -0 -0 -0 -0 -0 -0 -0 0 0 0 0 0 0
0 0 0 0 0 0 0 0 0 0 0 0 0 0 0 0 0 0 0 0 0 0 0 0 0 0 0 0 0 -0 -0 -0 -0 -0 -0 -0 -0 -0 0 0 0 0 0
0 0 0 0 0 0 0 0 0 0 0 0 0 0 0 0 0 0 0 0 0 0 0 0 0 0 0 -0 -0 -0 -0 -0 -0 -0 -0 -0 -0 -0 0 0 0 0 0
0 0 0 0 0 0 0 0 0 0 0 0 0 0 0 0 0 0 0 0 0 0 0 0 0 0 0 -0 -0 -0 -0 -0 -0 -0 -0 -0 -0 -0 -0 0 0 0 0
0 0 0 0 0 0 0 0 0 0 0 0 0 0 0 0 0 0 0 0 0 0 0 0 0 0 0 -0 -0 -0 -0 -0 -0 -0 -0 -0 -0 -0 -0 0 0 0 0
0 0 0 0 0 0 0 0 0 0 0 0 0 0 0 0 0 0 0 0 0 0 0 0 0 -0 -0 -0 -0 -0 -0 -0 -0 -0 -0 0 0 0 0 0 0 0 0
0 0 0 0 0 0 0 0 0 0 0 0 0 0 0 0 0 0 0 0 0 0 0 0 0 0 0 0 -0 -0 -0 -0 -0 -0 0 0 0 0 0 0 0 0 0
0 0 0 0 0 0 0 0 0 0 0 0 0 0 0 0 0 0 0 0 0 0 0 0 0 0 0 0 0 0 0 0 0 0 0 0 0 0 0 0 0 0 0
0 0 0 0 0 0 0 0 0 0 0 0 0 0 0 0 0 0 0 0 0 0 0 0 0 0 0 0 0 0 0 0 0 0 0 0 0 0 0 0 0 0 0
0 0 0 0 0 0 0 0 0 0 0 0 0 0 0 0 0 0 0 0 0 0 0 0 0 0 0 0 0 0 0 0 0 0 0 0 0 0 0 0 0 0 0
0 0 0 0 0 0 0 0 0 0 0 0 0 0 0 0 0 0 0 0 0 0 0 0 0 0 0 0 0 0 0 0 0 0 0 0 0 0 0 0 0 0 0
0 0 0 0 0 0 0 0 0 0 0 0 0 0 0 0 0 0 0 0 0 0 0 0 0 0 0 0 0 0 0 0 0 0 0 0 0 0 0 0 0 0 0
0 0 0 0 0 0 0 0 0 0 0 0 0 0 0 0 0 0 0 0 0 0 0 0 0 0 0 0 0 0 0 0 0 0 0 0 0 0 0 0 0 0 0
0 0 0 0 0 0 0 0 0 0 0 0 0 0 0 0 0 0 0 0 0 0 0 0 0 0 0 0 0 0 0 0 0 0 0 0 0 0 0 0 0 0 0
0 0 0 0 0 0 0 0 0 0 0 0 0 0 0 0 0 0 0 0 0 0 0 0 0 0 0 0 0 0 0 0 0 0 0 0 0 0 0 0 0 0 0
Wind_Speed_500mb
66 66 67 66 63 58 53 49 48 47 48 48 46 48 46 44 43 44 43 42 44 43 43 44 44 43 44 44 44 45 46 47 59 68 63 59 52 48 43 43 44 43 41
63 63 63 61 60 57 55 50 48 48 48 47 46 47 47 46 45 46 44 43 44 44 41 42 41 40 40 40 41 42 43 42 50 58 58 55 50 45 44 43 42 42 40
59 59 59 58 57 56 52 50 51 50 48 47 47 46 44 43 44 43 42 42 40 38 37 36 35 36 35 35 37 38 38 40 41 48 53 51 50 47 46 44 43 39 38
57 58 56 54 52 50 49 50 50 48 46 45 44 42 41 40 39 38 37 33 31 30 30 30 29 30 30 30 31 31 32 34 37 41 45 47 46 43 43 45 40 38 35
55 55 54 50 48 48 48 47 46 45 43 42 40 38 36 34 32 29 25 23 22 21 21 22 22 24 24 25 25 25 27 27 29 32 35 38 40 42 42 43 43 41 37
50 51 51 50 47 46 44 42 41 40 39 37 35 32 29 28 26 22 18 17 15 14 16 15 15 15 16 16 15 17 19 21 23 27 31 36 36 37 39 40 41 41 37
45 47 47 47 46 44 41 40 39 38 36 35 32 29 26 23 18 15 13 12 10 9 7 5 6 8 11 13 14 15 16 20 25 29 32 34 35 36 38 37 36 34 31
46 47 47 48 47 45 44 43 41 38 35 32 30 26 22 19 13 12 10 10 8 6 6 10 15 18 17 14 13 13 15 17 21 23 26 28 30 31 33 35 36 34 30
50 50 50 49 49 48 46 44 41 38 36 32 28 24 19 17 14 12 15 16 17 22 22 18 17 19 19 20 19 20 21 23 26 28 30 29 29 31 33 33 34 32 29
50 50 48 46 44 45 43 42 41 36 33 30 27 25 22 17 20 23 23 22 23 22 22 23 24 26 27 29 27 27 26 31 30 30 29 30 33 32 30 30 30 29 28
51 50 48 45 42 41 42 39 37 35 33 33 30 28 25 24 27 27 25 24 23 28 29 30 33 33 33 33 33 35 39 37 35 35 35 35 34 32 30 29 28 25 25
49 48 48 47 45 41 38 40 38 36 34 34 34 33 30 30 30 30 30 30 33 31 34 36 38 35 35 36 38 39 35 34 32 31 31 30 31 32 32 30 30 27 27
51 49 46 45 44 42 40 38 38 36 36 38 38 38 39 37 37 36 37 38 36 33 38 41 40 37 37 37 36 34 33 31 31 31 33 33 33 33 33 32 31 29 26
52 49 48 45 44 42 39 36 37 42 42 40 42 43 43 42 41 42 42 43 41 40 43 42 40 39 36 36 35 33 34 35 35 33 32 32 32 31 33 34 33 31 26
54 51 48 46 45 45 43 41 40 37 35 39 41 41 46 49 48 47 44 45 44 44 43 42 40 37 37 36 34 33 32 31 29 31 32 31 32 32 33 34 33 31 28
55 53 52 51 50 48 48 47 39 34 36 35 37 41 49 50 54 51 49 47 46 44 41 40 39 36 33 31 30 30 30 30 30 32 32 34 35 36 36 36 35 33 29
54 55 54 54 53 52 51 50 54 48 43 43 48 49 51 55 54 53 51 49 45 42 36 37 35 32 29 26 25 24 25 27 27 27 30 30 29 33 36 36 35 32 28
53 52 54 55 52 53 53 54 54 59 63 61 56 56 57 58 57 54 50 47 46 42 33 33 31 28 22 18 17 16 17 17 19 22 23 26 28 29 30 32 33 33 31
55 54 54 53 54 54 54 56 59 60 62 64 64 62 61 58 55 52 48 40 37 35 33 31 27 22 17 12 8 6 8 11 15 18 20 23 27 28 28 30 30 30 32
53 53 55 56 56 56 59 60 61 63 65 66 67 68 68 64 59 54 48 42 36 32 30 27 22 17 12 7 4 5 9 14 18 21 25 28 30 32 33 34 35 35 33
56 57 57 58 60 63 62 63 66 68 68 69 69 68 64 60 55 51 46 41 38 34 29 24 21 17 14 12 13 15 18 21 24 29 31 32 36 37 39 40 40 40 40
60 62 63 63 63 65 66 68 67 67 69 70 69 65 61 56 52 49 45 42 38 33 29 24 21 19 18 19 20 21 24 27 31 36 39 40 43 45 48 49 49 47 46
57 61 63 64 64 65 68 68 69 69 71 70 68 66 65 58 53 48 45 41 36 32 28 24 23 24 25 25 27 29 30 32 35 40 45 48 48 50 53 58 60 60 58
60 62 64 64 65 68 70 71 70 70 72 71 70 68 63 57 53 48 43 38 33 31 29 27 28 29 30 31 33 35 37 38 41 44 49 54 58 59 61 63 66 68 69
60 62 63 65 66 68 70 70 69 73 74 73 70 66 60 56 52 46 41 36 35 34 33 33 35 36 36 37 39 40 42 45 47 50 55 59 63 65 68 69 71 73 73
63 63 63 64 65 67 68 68 69 72 74 72 66 61 57 52 47 43 41 39 38 39 39 40 42 42 44 45 46 47 48 50 52 55 59 64 68 71 73 75 76 74 74
Wind_Direction_500mb
227 226 226 226 228 231 231 231 231 230 231 235 236 239 242 245 248 252 257 263 268 270 271 274 277 280 281 282 284 284 286 287 288 296 304 310 314 313 310 312 310 309 307
227 225 224 223 225 227 228 227 227 228 229 232 235 239 242 245 249 254 259 263 265 267 271 274 278 278 281 285 286 287 288 290 291 298 305 312 317 317 319 315 313 312 311
223 222 221 220 220 222 223 222 223 225 227 231 236 241 244 247 249 253 256 259 263 268 271 274 276 280 286 289 290 291 292 292 293 298 307 315 319 322 320 319 319 316 315
215 215 215 215 216 217 218 218 221 224 227 231 235 238 240 242 244 247 252 255 260 266 271 277 283 288 291 292 294 297 299 301 302 303 308 315 320 324 325 327 329 326 324
207 206 207 208 210 212 214 216 219 222 224 226 228 228 229 232 236 238 244 252 258 267 275 280 284 287 295 306 315 314 313 316 318 320 319 319 324 329 330 332 331 332 333
198 200 200 203 206 210 211 211 211 211 209 209 210 211 215 219 226 232 235 242 251 258 266 275 291 308 320 328 330 326 329 338 335 330 327 332 333 326 326 328 330 335 342
188 191 195 198 198 196 195 195 194 193 191 191 193 198 204 210 219 227 227 229 231 239 259 290 339 9 23 20 19 10 358 346 343 338 342 339 339 332 331 331 334 336 335
182 183 182 182 181 179 178 178 178 179 180 182 184 187 193 202 210 219 201 179 157 147 121 93 83 77 67 51 40 31 18 7 2 356 352 347 341 337 336 335 332 329 326
169 170 169 170 170 170 171 171 173 174 173 175 178 183 189 198 200 178 147 143 131 126 114 98 86 82 76 71 62 54 43 32 23 13 4 356 350 347 344 342 340 340 340
165 164 164 165 168 167 169 169 169 171 173 174 178 182 176 166 153 145 139 138 136 130 119 105 97 87 78 71 63 59 54 47 36 28 17 9 3 358 355 356 355 353 344
165 164 164 165 167 169 168 171 174 175 178 178 174 164 166 162 154 146 144 144 140 132 118 108 96 85 81 77 72 64 55 48 39 30 23 15 10 5 3 5 5 1 351
170 169 168 168 169 172 178 178 179 182 175 171 172 169 164 162 157 150 144 141 131 126 118 108 98 91 84 78 71 65 60 53 43 34 28 21 14 6 359 355 352 348 342
173 172 172 173 176 179 182 184 180 178 183 178 174 170 163 159 152 144 141 133 127 126 114 106 99 93 86 80 78 72 64 58 50 41 33 24 15 5 358 350 343 339 340
177 177 178 181 181 182 183 186 188 186 183 181 175 169 161 154 148 143 140 133 129 121 110 107 103 98 95 88 82 76 66 59 51 46 40 32 24 11 2 356 349 345 347
181 184 183 185 186 183 183 186 186 187 189 183 175 168 160 152 147 143 138 134 129 122 119 114 111 107 99 91 83 75 68 62 55 47 41 35 27 16 5 359 353 350 351
185 187 189 187 186 186 184 179 178 185 178 178 171 163 153 152 147 144 141 139 132 126 128 123 119 110 104 97 90 81 73 63 55 46 38 31 22 12 5 0 356 352 347
194 191 190 190 188 186 185 185 176 171 174 171 166 160 157 153 149 150 150 142 137 138 143 131 119 117 110 101 90 80 67 55 45 37 29 23 14 7 3 360 356 351 345
193 196 194 190 190 188 187 185 181 174 168 164 163 162 160 158 157 157 153 151 149 148 145 130 129 124 116 107 92 76 61 44 31 24 19 11 3 357 356 353 349 342 337
192 192 192 192 192 191 187 184 180 176 171 167 165 166 165 164 164 162 159 159 158 153 151 146 146 141 142 133 108 70 31 5 356 354 349 346 344 343 340 339 339 334 330
191 195 195 195 193 193 190 186 183 180 176 175 173 171 172 172 171 168 167 167 167 171 166 166 167 168 174 185 226 293 312 319 322 323 320 317 319 323 326 325 324 323 322
197 198 202 199 197 195 193 191 189 186 183 182 180 181 179 176 175 176 176 177 183 187 187 190 198 207 221 243 267 285 297 301 301 302 303 305 306 307 308 311 312 310 309
202 199 199 199 197 197 197 194 192 191 190 189 187 184 183 183 184 185 186 191 196 202 207 214 226 240 255 266 276 285 291 296 300 301 302 302 302 302 302 301 301 301 301
200 201 200 200 200 198 197 197 196 197 196 195 192 190 190 189 191 194 198 204 210 217 226 236 246 255 263 272 280 287 290 294 298 300 302 303 302 302 301 299 298 296 295
203 202 201 199 198 199 200 200 200 202 201 200 199 198 197 195 199 203 209 216 225 234 243 251 259 265 270 275 279 285 290 294 297 298 299 301 302 303 302 300 299 297 295
202 202 203 203 200 200 200 202 205 205 205 206 205 203 203 204 208 212 219 226 235 244 254 261 266 271 275 278 281 285 289 293 296 299 300 300 300 301 301 300 299 298 295
203 203 203 203 202 204 206 209 211 211 210 209 209 210 212 215 219 225 231 238 246 254 261 266 271 275 277 279 282 286 289 292 294 295 295 296 297 298 299 298 297 295 294
Wind_Speed_850mb
66 66 67 66 63 58 53 49 48 47 48 48 46 48 46 44 43 44 43 42 44 43 43 44 44 43 44 44 44 45 46 47 59 68 63 59 52 48 43 43 44 43 41
63 63 63 61 60 57 55 50 48 48 48 47 46 47 47 46 45 46 44 43 44 44 41 42 41 40 40 40 41 42 43 42 50 58 58 55 50 45 44 43 42 42 40
59 59 59 58 57 56 52 50 51 50 48 47 47 46 44 43 44 43 42 42 40 38 37 36 35 36 35 35 37 38 38 40 41 48 53 51 50 47 46 44 43 39 38
57 58 56 54 52 50 49 50 50 48 46 45 44 42 41 40 39 38 37 33 31 30 30 30 29 30 30 30 31 31 32 34 37 41 45 47 46 43 43 45 40 38 35
55 55 54 50 48 48 48 47 46 45 43 42 40 38 36 34 32 29 25 23 22 21 21 22 22 24 24 25 25 25 27 27 29 32 35 38 40 42 42 43 43 41 37
50 51 51 50 47 46 44 42 41 40 39 37 35 32 29 28 26 22 18 17 15 14 16 15 15 15 16 16 15 17 19 21 23 27 31 36 36 37 39 40 41 41 37
45 47 47 47 46 44 41 40 39 38 36 35 32 29 26 23 18 15 13 12 10 9 7 5 6 8 11 13 14 15 16 20 25 29 32 34 35 36 38 37 36 34 31
46 47 47 48 47 45 44 43 41 38 35 32 30 26 22 19 13 12 10 10 8 6 6 10 15 18 17 14 13 13 15 17 21 23 26 28 30 31 33 35 36 34 30
50 50 50 49 49 48 46 44 41 38 36 32 28 24 19 17 14 12 15 16 17 22 22 18 17 19 19 20 19 20 21 23 26 28 30 29 29 31 33 33 34 32 29
50 50 48 46 44 45 43 42 41 36 33 30 27 25 22 17 20 23 23 22 23 22 22 23 24 26 27 29 27 27 26 31 30 30 29 30 33 32 30 30 30 29 28
51 50 48 45 42 41 42 39 37 35 33 33 30 28 25 24 27 27 25 24 23 28 29 30 33 33 33 33 33 35 39 37 35 35 35 35 34 32 30 29 28 25 25
49 48 48 47 45 41 38 40 38 36 34 34 34 33 30 30 30 30 30 30 33 31 34 36 38 35 35 36 38 39 35 34 32 31 31 30 31 32 32 30 30 27 27
51 49 46 45 44 42 40 38 38 36 36 38 38 38 39 37 37 36 37 38 36 33 38 41 40 37 37 37 36 34 33 31 31 31 33 33 33 33 33 32 31 29 26
52 49 48 45 44 42 39 36 37 42 42 40 42 43 43 42 41 42 42 43 41 40 43 42 40 39 36 36 35 33 34 35 35 33 32 32 32 31 33 34 33 31 26
54 51 48 46 45 45 43 41 40 37 35 39 41 41 46 49 48 47 44 45 44 44 43 42 40 37 37 36 34 33 32 31 29 31 32 31 32 32 33 34 33 31 28
55 53 52 51 50 48 48 47 39 34 36 35 37 41 49 50 54 51 49 47 46 44 41 40 39 36 33 31 30 30 30 30 30 32 32 34 35 36 36 36 35 33 29
54 55 54 54 53 52 51 50 54 48 43 43 48 49 51 55 54 53 51 49 45 42 36 37 35 32 29 26 25 24 25 27 27 27 30 30 29 33 36 36 35 32 28
53 52 54 55 52 53 53 54 54 59 63 61 56 56 57 58 57 54 50 47 46 42 33 33 31 28 22 18 17 16 17 17 19 22 23 26 28 29 30 32 33 33 31
55 54 54 53 54 54 54 56 59 60 62 64 64 62 61 58 55 52 48 40 37 35 33 31 27 22 17 12 8 6 8 11 15 18 20 23 27 28 28 30 30 30 32
53 53 55 56 56 56 59 60 61 63 65 66 67 68 68 64 59 54 48 42 36 32 30 27 22 17 12 7 4 5 9 14 18 21 25 28 30 32 33 34 35 35 33
56 57 57 58 60 63 62 63 66 68 68 69 69 68 64 60 55 51 46 41 38 34 29 24 21 17 14 12 13 15 18 21 24 29 31 32 36 37 39 40 40 40 40
60 62 63 63 63 65 66 68 67 67 69 70 69 65 61 56 52 49 45 42 38 33 29 24 21 19 18 19 20 21 24 27 31 36 39 40 43 45 48 49 49 47 46
57 61 63 64 64 65 68 68 69 69 71 70 68 66 65 58 53 48 45 41 36 32 28 24 23 24 25 25 27 29 30 32 35 40 45 48 48 50 53 58 60 60 58
60 62 64 64 65 68 70 71 70 70 72 71 70 68 63 57 53 48 43 38 33 31 29 27 28 29 30 31 33 35 37 38 41 44 49 54 58 59 61 63 66 68 69
60 62 63 65 66 68 70 70 69 73 74 73 70 66 60 56 52 46 41 36 35 34 33 33 35 36 36 37 39 40 42 45 47 50 55 59 63 65 68 69 71 73 73
63 63 63 64 65 67 68 68 69 72 74 72 66 61 57 52 47 43 41 39 38 39 39 40 42 42 44 45 46 47 48 50 52 55 59 64 68 71 73 75 76 74 74
Wind_Direction_850mb
227 226 226 226 228 231 231 231 231 230 231 235 236 239 242 245 248 252 257 263 268 270 271 274 277 280 281 282 284 284 286 287 288 296 304 310 314 313 310 312 310 309 307
227 225 224 223 225 227 228 227 227 228 229 232 235 239 242 245 249 254 259 263 265 267 271 274 278 278 281 285 286 287 288 290 291 298 305 312 317 317 319 315 313 312 311
223 222 221 220 220 222 223 222 223 225 227 231 236 241 244 247 249 253 256 259 263 268 271 274 276 280 286 289 290 291 292 292 293 298 307 315 319 322 320 319 319 316 315
215 215 215 215 216 217 218 218 221 224 227 231 235 238 240 242 244 247 252 255 260 266 271 277 283 288 291 292 294 297 299 301 302 303 308 315 320 324 325 327 329 326 324
207 206 207 208 210 212 214 216 219 222 224 226 228 228 229 232 236 238 244 252 258 267 275 280 284 287 295 306 315 314 313 316 318 320 319 319 324 329 330 332 331 332 333
198 200 200 203 206 210 211 211 211 211 209 209 210 211 215 219 226 232 235 242 251 258 266 275 291 308 320 328 330 326 329 338 335 330 327 332 333 326 326 328 330 335 342
188 191 195 198 198 196 195 195 194 193 191 191 193 198 204 210 219 227 227 229 231 239 259 290 339 9 23 20 19 10 358 346 343 338 342 339 339 332 331 331 334 336 335
182 183 182 182 181 179 178 178 178 179 180 182 184 187 193 202 210 219 201 179 157 147 121 93 83 77 67 51 40 31 18 7 2 356 352 347 341 337 336 335 332 329 326
169 170 169 170 170 170 171 171 173 174 173 175 178 183 189 198 200 178 147 143 131 126 114 98 86 82 76 71 62 54 43 32 23 13 4 356 350 347 344 342 340 340 340
165 164 164 165 168 167 169 169 169 171 173 174 178 182 176 166 153 145 139 138 136 130 119 105 97 87 78 71 63 59 54 47 36 28 17 9 3 358 355 356 355 353 344
165 164 164 165 167 169 168 171 174 175 178 178 174 164 166 162 154 146 144 144 140 132 118 108 96 85 81 77 72 64 55 48 39 30 23 15 10 5 3 5 5 1 351
170 169 168 168 169 172 178 178 179 182 175 171 172 169 164 162 157 150 144 141 131 126 118 108 98 91 84 78 71 65 60 53 43 34 28 21 14 6 359 355 352 348 342
173 172 172 173 176 179 182 184 180 178 183 178 174 170 163 159 152 144 141 133 127 126 114 106 99 93 86 80 78 72 64 58 50 41 33 24 15 5 358 350 343 339 340
177 177 178 181 181 182 183 186 188 186 183 181 175 169 161 154 148 143 140 133 129 121 110 107 103 98 95 88 82 76 66 59 51 46 40 32 24 11 2 356 349 345 347
181 184 183 185 186 183 183 186 186 187 189 183 175 168 160 152 147 143 138 134 129 122 119 114 111 107 99 91 83 75 68 62 55 47 41 35 27 16 5 359 353 350 351
185 187 189 187 186 186 184 179 178 185 178 178 171 163 153 152 147 144 141 139 132 126 128 123 119 110 104 97 90 81 73 63 55 46 38 31 22 12 5 0 356 352 347
194 191 190 190 188 186 185 185 176 171 174 171 166 160 157 153 149 150 150 142 137 138 143 131 119 117 110 101 90 80 67 55 45 37 29 23 14 7 3 360 356 351 345
193 196 194 190 190 188 187 185 181 174 168 164 163 162 160 158 157 157 153 151 149 148 145 130 129 124 116 107 92 76 61 44 31 24 19 11 3 357 356 353 349 342 337
192 192 192 192 192 191 187 184 180 176 171 167 165 166 165 164 164 162 159 159 158 153 151 146 146 141 142 133 108 70 31 5 356 354 349 346 344 343 340 339 339 334 330
191 195 195 195 193 193 190 186 183 180 176 175 173 171 172 172 171 168 167 167 167 171 166 166 167 168 174 185 226 293 312 319 322 323 320 317 319 323 326 325 324 323 322
197 198 202 199 197 195 193 191 189 186 183 182 180 181 179 176 175 176 176 177 183 187 187 190 198 207 221 243 267 285 297 301 301 302 303 305 306 307 308 311 312 310 309
202 199 199 199 197 197 197 194 192 191 190 189 187 184 183 183 184 185 186 191 196 202 207 214 226 240 255 266 276 285 291 296 300 301 302 302 302 302 302 301 301 301 301
200 201 200 200 200 198 197 197 196 197 196 195 192 190 190 189 191 194 198 204 210 217 226 236 246 255 263 272 280 287 290 294 298 300 302 303 302 302 301 299 298 296 295
203 202 201 199 198 199 200 200 200 202 201 200 199 198 197 195 199 203 209 216 225 234 243 251 259 265 270 275 279 285 290 294 297 298 299 301 302 303 302 300 299 297 295
202 202 203 203 200 200 200 202 205 205 205 206 205 203 203 204 208 212 219 226 235 244 254 261 266 271 275 278 281 285 289 293 296 299 300 300 300 301 301 300 299 298 295
203 203 203 203 202 204 206 209 211 211 210 209 209 210 212 215 219 225 231 238 246 254 261 266 271 275 277 279 282 286 289 292 294 295 295 296 297 298 299 298 297 295 294